| time (UTC) | temp C | wind direction | speed KPH | gust KPH | rain 1hr cm | rain 24hr cm | rain mn cm | humidity % | barometer mb |
| 20260507070209 | 6 | 13 | 4.8 | 12.9 | 0.00 | 0.81 | 0.00 | 65 | 1014.3 |
| 20260507065208 | 6 | 13 | 6.4 | 14.5 | 0.00 | 0.81 | 0.00 | 62 | 1014.1 |
| 20260507063208 | 6 | 15 | 4.8 | 12.9 | 0.00 | 0.81 | 0.00 | 63 | 1014.0 |
| 20260507062208 | 6 | 7 | 4.8 | 16.1 | 0.00 | 0.84 | 0.00 | 67 | 1014.2 |
| 20260507061208 | 6 | 12 | 6.4 | 12.9 | 0.00 | 0.84 | 0.00 | 65 | 1014.2 |
| 20260507060209 | 6 | 11 | 4.8 | 12.9 | 0.00 | 0.84 | 0.00 | 66 | 1014.5 |
| 20260507055209 | 6 | 12 | 6.4 | 11.3 | 0.00 | 0.86 | 0.00 | 68 | 1014.4 |
| 20260507053208 | 6 | 9 | 6.4 | 14.5 | 0.00 | 0.89 | 0.00 | 64 | 1014.5 |
| 20260507052208 | 6 | 12 | 4.8 | 12.9 | 0.00 | 0.89 | 0.00 | 64 | 1014.5 |
| 20260507050208 | 6 | 9 | 6.4 | 14.5 | 0.00 | 0.91 | 0.00 | 63 | 1014.2 |
| 20260507045208 | 6 | 15 | 6.4 | 12.9 | 0.00 | 0.91 | 0.00 | 62 | 1014.6 |
| 20260507044208 | 6 | 10 | 6.4 | 12.9 | 0.00 | 0.94 | 0.00 | 62 | 1014.4 |
| 20260507043208 | 6 | 21 | 6.4 | 16.1 | 0.00 | 0.97 | 0.00 | 63 | 1014.5 |
| 20260507042208 | 6 | 8 | 6.4 | 14.5 | 0.00 | 0.97 | 0.00 | 62 | 1014.5 |
| 20260507041208 | 6 | 13 | 6.4 | 14.5 | 0.00 | 0.99 | 0.00 | 62 | 1014.3 |
| 20260507035208 | 6 | 12 | 6.4 | 14.5 | 0.00 | 1.02 | 1.02 | 64 | 1014.2 |
| 20260507034208 | 6 | 15 | 6.4 | 16.1 | 0.00 | 1.04 | 1.02 | 64 | 1014.0 |
| 20260507033208 | 6 | 10 | 4.8 | 11.3 | 0.00 | 1.07 | 1.02 | 69 | 1014.0 |
| 20260507032208 | 6 | 6 | 4.8 | 16.1 | 0.00 | 1.07 | 1.02 | 75 | 1014.2 |
| 20260507031208 | 6 | 6 | 4.8 | 12.9 | 0.00 | 1.07 | 1.02 | 75 | 1014.0 |
| 20260507030208 | 6 | 7 | 4.8 | 11.3 | 0.00 | 1.09 | 1.02 | 74 | 1014.2 |
| 20260507025208 | 6 | 5 | 4.8 | 11.3 | 0.00 | 1.09 | 1.02 | 82 | 1014.2 |
| 20260507024208 | 6 | 4 | 3.2 | 12.9 | 0.00 | 1.09 | 1.02 | 87 | 1014.2 |
| 20260507023208 | 6 | 3 | 4.8 | 12.9 | 0.00 | 1.14 | 1.02 | 87 | 1014.4 |
| 20260507022208 | 6 | 4 | 4.8 | 12.9 | 0.00 | 1.19 | 1.02 | 87 | 1014.1 |
| 20260507021208 | 6 | 2 | 4.8 | 14.5 | 0.00 | 1.22 | 1.02 | 86 | 1014.1 |
| 20260507020208 | 6 | 6 | 3.2 | 12.9 | 0.00 | 1.24 | 1.02 | 85 | 1014.0 |
| 20260507015208 | 6 | 6 | 4.8 | 12.9 | 0.00 | 1.27 | 1.02 | 85 | 1014.1 |
| 20260507013208 | 6 | 14 | 1.6 | 9.7 | 0.00 | 1.30 | 1.02 | 87 | 1014.0 |
| 20260507012208 | 7 | 349 | 1.6 | 6.4 | 0.00 | 1.30 | 1.02 | 87 | 1014.2 |
| 20260507011208 | 7 | 9 | 1.6 | 6.4 | 0.00 | 1.30 | 1.02 | 85 | 1014.0 |
| 20260507010208 | 7 | 5 | 1.6 | 6.4 | 0.00 | 1.30 | 1.02 | 86 | 1014.0 |
| 20260507005209 | 6 | 351 | 0.0 | 4.8 | 0.00 | 1.30 | 1.02 | 87 | 1013.9 |
| 20260507004208 | 6 | 310 | 0.0 | 3.2 | 0.00 | 1.32 | 1.02 | 88 | 1013.8 |
| 20260507003208 | 6 | 330 | 1.6 | 9.7 | 0.00 | 1.32 | 1.02 | 86 | 1013.8 |
| 20260507002208 | 6 | 349 | 1.6 | 6.4 | 0.00 | 1.32 | 1.02 | 87 | 1013.6 |
| 20260506235208 | 6 | 6 | 3.2 | 9.7 | 0.00 | 1.37 | 1.02 | 84 | 1013.6 |
| 20260506233208 | 6 | 350 | 1.6 | 4.8 | 0.00 | 1.42 | 1.02 | 85 | 1013.4 |
| 20260506231210 | 6 | 333 | 1.6 | 4.8 | 0.00 | 1.45 | 1.02 | 87 | 1013.2 |
| 20260506230208 | 6 | 357 | 0.0 | 3.2 | 0.00 | 1.45 | 1.02 | 86 | 1013.0 |
| 20260506224208 | 6 | 8 | 1.6 | 6.4 | 0.00 | 1.47 | 1.02 | 87 | 1013.0 |
| 20260506223207 | 6 | 6 | 0.0 | 3.2 | 0.00 | 1.50 | 1.02 | 85 | 1012.9 |
| 20260506222208 | 6 | 298 | 0.0 | 1.6 | 0.00 | 1.52 | 1.02 | 86 | 1012.8 |
| 20260506221209 | 6 | 282 | 0.0 | 3.2 | 0.00 | 1.52 | 1.02 | 85 | 1012.7 |
| 20260506220209 | 7 | 321 | 0.0 | 3.2 | 0.00 | 1.55 | 1.02 | 86 | 1012.6 |
| 20260506215208 | 6 | 291 | 0.0 | 3.2 | 0.00 | 1.55 | 1.02 | 87 | 1012.7 |
| 20260506214208 | 7 | 276 | 0.0 | 3.2 | 0.00 | 1.55 | 1.02 | 86 | 1012.8 |
| 20260506213208 | 7 | 275 | 0.0 | 4.8 | 0.00 | 1.55 | 1.02 | 85 | 1012.6 |
| 20260506212209 | 7 | 289 | 1.6 | 4.8 | 0.00 | 1.55 | 1.02 | 83 | 1012.8 |
| 20260506205210 | 7 | 312 | 0.0 | 3.2 | 0.00 | 1.55 | 1.02 | 82 | 1012.4 |
| 20260506204208 | 7 | 302 | 0.0 | 3.2 | 0.00 | 1.55 | 1.02 | 83 | 1012.4 |
| 20260506203209 | 7 | 312 | 0.0 | 4.8 | 0.00 | 1.55 | 1.02 | 82 | 1012.5 |
| 20260506200209 | 8 | 306 | 0.0 | 4.8 | 0.00 | 1.55 | 1.02 | 81 | 1012.7 |
| 20260506194208 | 8 | 283 | 0.0 | 3.2 | 0.00 | 1.55 | 1.02 | 78 | 1012.5 |
| 20260506193209 | 8 | 298 | 0.0 | 3.2 | 0.00 | 1.55 | 1.02 | 80 | 1012.5 |
| 20260506192209 | 8 | 285 | 0.0 | 3.2 | 0.00 | 1.55 | 1.02 | 82 | 1012.6 |
| 20260506191208 | 7 | 291 | 1.6 | 4.8 | 0.00 | 1.55 | 1.02 | 83 | 1012.5 |
| 20260506190209 | 8 | 271 | 1.6 | 6.4 | 0.00 | 1.55 | 1.02 | 80 | 1012.5 |
| 20260506185208 | 8 | 277 | 1.6 | 4.8 | 0.00 | 1.55 | 1.02 | 81 | 1012.2 |
| 20260506183209 | 8 | 271 | 1.6 | 9.7 | 0.00 | 1.55 | 1.02 | 83 | 1012.6 |
| 20260506182209 | 8 | 298 | 0.0 | 4.8 | 0.00 | 1.55 | 1.02 | 83 | 1012.8 |
| 20260506181208 | 7 | 22 | 1.6 | 3.2 | 0.00 | 1.55 | 1.02 | 76 | 1012.6 |
| 20260506180208 | 7 | 23 | 1.6 | 3.2 | 0.00 | 1.55 | 1.02 | 79 | 1012.6 |
| 20260506173208 | 7 | 29 | 3.2 | 4.8 | 0.00 | 1.55 | 1.02 | 79 | 1012.5 |
| 20260506172208 | 7 | 25 | 1.6 | 4.8 | 0.00 | 1.55 | 1.02 | 81 | 1012.4 |
| 20260506171208 | 7 | 19 | 1.6 | 3.2 | 0.00 | 1.55 | 1.02 | 81 | 1012.5 |
| 20260506170208 | 7 | 24 | 1.6 | 3.2 | 0.00 | 1.55 | 1.02 | 80 | 1012.5 |
| 20260506165208 | 7 | 63 | 1.6 | 6.4 | 0.00 | 1.55 | 1.02 | 81 | 1012.5 |
| 20260506164208 | 7 | 30 | 0.0 | 4.8 | 0.00 | 1.55 | 1.02 | 82 | 1012.3 |
| 20260506163208 | 7 | 35 | 1.6 | 4.8 | 0.00 | 1.55 | 1.02 | 84 | 1012.4 |
| 20260506162208 | 7 | 145 | 1.6 | 4.8 | 0.00 | 1.55 | 1.02 | 83 | 1012.4 |
| 20260506161208 | 8 | 44 | 0.0 | 4.8 | 0.00 | 1.55 | 1.02 | 81 | 1012.3 |
| 20260506160208 | 7 | 81 | 1.6 | 4.8 | 0.00 | 1.55 | 1.02 | 85 | 1012.1 |
| 20260506155208 | 7 | 124 | 0.0 | 4.8 | 0.00 | 1.55 | 1.02 | 84 | 1012.4 |
| 20260506154208 | 7 | 147 | 0.0 | 4.8 | 0.00 | 1.55 | 1.02 | 86 | 1012.3 |
| 20260506153208 | 6 | 117 | 1.6 | 4.8 | 0.00 | 1.55 | 1.02 | 87 | 1012.4 |
| 20260506152208 | 7 | 68 | 1.6 | 6.4 | 0.00 | 1.55 | 1.02 | 86 | 1012.4 |
| 20260506151208 | 7 | 98 | 0.0 | 4.8 | 0.00 | 1.55 | 1.02 | 89 | 1012.5 |
| 20260506150208 | 6 | 137 | 0.0 | 3.2 | 0.00 | 1.55 | 1.02 | 89 | 1012.5 |
| 20260506145208 | 6 | 118 | 0.0 | 3.2 | 0.00 | 1.55 | 1.02 | 90 | 1012.6 |
| 20260506144208 | 6 | 150 | 0.0 | 6.4 | 0.00 | 1.55 | 1.02 | 90 | 1012.5 |
| 20260506143208 | 6 | 122 | 0.0 | 3.2 | 0.00 | 1.55 | 1.02 | 92 | 1012.3 |
| 20260506142208 | 6 | 111 | 0.0 | 3.2 | 0.00 | 1.55 | 1.02 | 92 | 1012.4 |
| 20260506140208 | 6 | 162 | 0.0 | 3.2 | 0.03 | 1.55 | 1.02 | 93 | 1012.2 |
| 20260506135208 | 6 | 156 | 1.6 | 3.2 | 0.03 | 1.55 | 1.02 | 92 | 1012.1 |
| 20260506134208 | 6 | 127 | 0.0 | 3.2 | 0.05 | 1.55 | 1.02 | 95 | 1012.2 |
| 20260506133208 | 6 | 119 | 0.0 | 1.6 | 0.08 | 1.55 | 1.02 | 95 | 1012.0 |
| 20260506132208 | 6 | 113 | 0.0 | 1.6 | 0.08 | 1.55 | 1.02 | 96 | 1012.0 |
| 20260506122208 | 5 | 0 | 0.0 | 0.0 | 0.10 | 1.47 | 0.94 | 97 | 1012.1 |
| 20260506120208 | 5 | 113 | 0.0 | 1.6 | 0.05 | 1.42 | 0.89 | 97 | 1012.0 |
| 20260506115209 | 5 | 76 | 0.0 | 3.2 | 0.03 | 1.40 | 0.86 | 97 | 1012.3 |
| 20260506114210 | 5 | 71 | 0.0 | 1.6 | 0.05 | 1.40 | 0.86 | 97 | 1012.1 |
| 20260506113208 | 5 | 113 | 0.0 | 1.6 | 0.05 | 1.40 | 0.86 | 97 | 1012.0 |
| 20260506112208 | 5 | 188 | 0.0 | 1.6 | 0.05 | 1.37 | 0.84 | 97 | 1012.1 |
| 20260506110208 | 5 | 192 | 0.0 | 3.2 | 0.08 | 1.37 | 0.84 | 97 | 1011.6 |
| 20260506105208 | 5 | 190 | 0.0 | 1.6 | 0.10 | 1.37 | 0.84 | 97 | 1011.9 |
| 20260506103208 | 5 | 0 | 0.0 | 0.0 | 0.15 | 1.35 | 0.81 | 97 | 1011.9 |
| 20260506102208 | 5 | 0 | 0.0 | 0.0 | 0.15 | 1.32 | 0.79 | 97 | 1011.9 |
| 20260506095208 | 5 | 0 | 0.0 | 0.0 | 0.15 | 1.27 | 0.74 | 97 | 1012.0 |
| 20260506093208 | 5 | 0 | 0.0 | 0.0 | 0.13 | 1.19 | 0.66 | 97 | 1012.5 |
| 20260506092208 | 5 | 190 | 0.0 | 1.6 | 0.13 | 1.17 | 0.64 | 97 | 1012.3 |
| 20260506090208 | 5 | 0 | 0.0 | 0.0 | 0.23 | 1.14 | 0.61 | 97 | 1011.9 |
| 20260506085210 | 5 | 189 | 0.0 | 1.6 | 0.23 | 1.12 | 0.58 | 97 | 1011.8 |
| 20260506083208 | 5 | 0 | 0.0 | 0.0 | 0.28 | 1.07 | 0.53 | 96 | 1012.2 |
| 20260506082208 | 5 | 0 | 0.0 | 0.0 | 0.25 | 1.04 | 0.51 | 96 | 1012.3 |
| 20260506080208 | 5 | 0 | 0.0 | 0.0 | 0.18 | 0.97 | 0.38 | 96 | 1012.2 |
| 20260506072208 | 6 | 200 | 1.6 | 3.2 | 0.08 | 0.94 | 0.25 | 96 | 1012.3 |